Hourly Data Report for May 20, 2021

CARIBOU POINT (AUT)
NOVA SCOTIA
Current Station Operator: ECCC - MSC

45°46'00.000" N
62°41'00.000" W
2.40 m
8200774
71415
WBK

Download Data

Hourly Data (May 2021)
Hourly Data Report for May 20, 2021
TIME
LST
Temp Definition
°C
Dew Point Definition
°C
Rel Hum Definition
%
Precip. Amount Definition
mm

Wind Dir Definition
10's deg

Wind Spd Definition
km/h
Visibility Definition
km
Stn Press Definition
kPa
Hmdx Definition


Wind Chill Definition


Weather Definition


00:00 8.4 6.9 91 0.0 5 8   102.96     LegendNANA
01:00 8.4 7.3 93 0.0 4 9   103.05     LegendNANA
02:00 8.4 7.5 94 0.0 6 9   103.04     LegendNANA
03:00 8.0 7.2 95 0.0 4 11   103.07     LegendNANA
04:00 8.0 7.2 95 0.0 5 12   103.10     LegendNANA
05:00 8.3 7.5 95 0.0 8 7   103.16     LegendNANA
06:00 8.3 7.3 94 0.0 9 10   103.23     LegendNANA
07:00 8.5 7.4 93 0.0 9 8   103.30     LegendNANA
08:00 8.8 7.6 92 0.0 36 2   103.32     LegendNANA
09:00 8.9 7.5 91 0.0 34 3   103.36     LegendNANA
10:00 9.3 7.7 90 0.0 35 12   103.38     LegendNANA
11:00 9.6 7.6 87 0.0 32 7   103.39     LegendNANA
12:00 10.2 7.9 86 0.0 32 8   103.35     LegendNANA
13:00 10.7 8.5 87 0.0 1 10   103.30     LegendNANA
14:00 11.4 9.2 86 0.0 4 7   103.21     LegendNANA
15:00 11.3 9.0 86 0.0 4 9   103.18     LegendNANA
16:00 11.1 8.7 85 0.0 9 12   103.15     LegendNANA
17:00 11.0 9.2 88 0.0 11 20   103.12     LegendNANA
18:00 10.4 8.8 90 0.0 15 8   103.11     LegendNANA
19:00 10.7 9.0 89 0.0 14 7   103.12     LegendNANA
20:00 10.6 9.0 90 0.0 15 11   103.10     LegendNANA
21:00 10.4 9.2 92 0.0 17 11   103.10     LegendNANA
22:00 12.1 9.4 84 0.0 21 10   103.08     LegendNANA
23:00 11.4 8.6 83 0.0 21 14   103.10     LegendNANA

Notes on Data Quality.

Legend

  • E = Estimated
  • M = Missing
  • NA = Not Available*
  • [empty] = Indicates an unobserved value
Date modified: